Regional Weather Roundup
Issued by NWS Charleston, SC

Current Version | Previous Version | Text Only | Print | Product List | Glossary Off
Versions: 1 2 3 4 5 6 7 8 9 10 11 12 13 14 15 16 17 18 19 20 21 22 23 24 25 26 27 28 29 30 31 32 33 34 35 36 37 38 39 40 41 42 43 44 45 46 47 48 49 50
000 ASUS42 KCHS 041527 RWRCHS REGIONAL WEATHER ROUNDUP NATIONAL WEATHER SERVICE CHARLESTON SC 1000 AM EST SUN DEC 04 2016 NOTE: "FAIR" INDICATES FEW OR NO CLOUDS BELOW 12,000 FEET WITH NO SIGNIFICANT WEATHER AND/OR OBSTRUCTIONS TO VISIBILITY. NOT ALL STATIONS ARE QUALITY CONTROLLED. USE DATA WITH CAUTION... ESPECIALLY DEWPOINT OBSERVATIONS. SCZ027-030-031-034>040-042>050-041600- ...SOUTHEAST SOUTH CAROLINA... CITY SKY/WX TMP DP RH WIND PRES REMARKS N CHARLESTON CLOUDY 56 40 55 NE10 30.22R WATERFRONT PRK N/A 53 45 74 NE9 30.21R MOUNT PLEASANT PTSUNNY 55 45 67 NE8 30.22S JOHNS ISLAND PTSUNNY 57 46 67 NE13 30.22R PINOPOLIS N/A 50 39 66 E9 30.15R MONCKS CORNER CLOUDY 52 34 50 E7 30.24R SUMMERVILLE CLOUDY 54 41 62 NE6 30.25R BEAUFORT MCAS NOT AVBL BEAUFORT ARPT PTSUNNY 55 45 67 NE12 30.21R HAZE HILTON HEAD IS PTSUNNY 57 48 72 NE14 30.19R WALTERBORO CLOUDY 54 41 62 E6 30.24R ALLENDALE CLOUDY 52 37 58 VRB5G13 30.21S ...SOUTHERN MIDLANDS AND PEE DEE... CITY SKY/WX TMP DP RH WIND PRES REMARKS GEORGETOWN NOT AVBL KINGSTREE CLOUDY 48 36 61 NE6 30.25F ORANGEBURG CLOUDY 50 34 54 NE8 30.24R BARNWELL NOT AVBL AIKEN CLOUDY 46 37 71 E8 30.26R MANNING NOT AVBL COLUMBIA CLOUDY 49 38 65 E9 30.24R SUMTER CLOUDY 48 37 66 NE6 30.23S FLORENCE CLOUDY 47 41 80 E10 30.27F MYRTLE BEACH CLOUDY 52 36 54 NE9 30.28R N MYRTLE BEACH CLOUDY 49 37 63 NE6 30.27R $$ GAZ063-065-086>088-099>101-113>116-118-119-134>141-150-041600- ...SOUTHEAST GEORGIA... CITY SKY/WX TMP DP RH WIND PRES REMARKS SAVANNAH ARPT CLOUDY 58 44 60 NE12 30.19R HUNTER AAF PTSUNNY 58 51 76 E7 30.16R FORT STEWART PTSUNNY 59 47 66 E6 30.16R STATESBORO CLOUDY 54 43 66 E6 30.19S SYLVANIA CLOUDY N/A N/A N/A E5 30.21R CLAXTON CLOUDY 57 47 67 NE9 30.17F ...CSRA...CENTRAL AND FAR SOUTHEAST GEORGIA... CITY SKY/WX TMP DP RH WIND PRES REMARKS THOMSON CLOUDY 49 45 85 CALM 30.29R AUGUSTA-BUSH CLOUDY 52 38 58 E7 30.21S AUGUSTA-DANIEL CLOUDY 51 35 54 E9 30.22R SWAINSBORO LGT RAIN 52 41 66 E7 30.18S VIDALIA CLOUDY 55 50 82 E10 30.17R EASTMAN CLOUDY 56 37 50 E7 30.18R HAZLEHURST CLOUDY 60 51 72 E5 30.15R ALMA CLOUDY 60 51 72 E8 30.13S WAYCROSS PTSUNNY 65 58 78 E7 30.14R JESUP FAIR 63 55 77 E9 30.15F BAXLEY CLOUDY 61 54 77 E9G17 30.13S BRUNSWICK CLOUDY 70 63 78 E7 30.15S SAINT SIMONS CLOUDY 69 59 70 E10 30.14R $$ SCZ027-028-034-036>038-045-046-048>050-GAZ119-141-041600- ...LAKE AND SUPPLEMENTAL COASTAL OBSERVATIONS... STATION/POSITION TIME TEMP WIND PRES WAVE SWELL AIR SEA DIR/SP/G HT/PER HT/PER/DIR (UTC) (F) (DEG/KT/KT) (MB) (FT/S) (FT/S/D) WINYAH BAY 1430 51 30/ 7 1024.0R LAKE MURRAY 1430 47 60/ 3/ 9 1023.4S ACE BASIN NERRS 1445 54 50/ 4 1022.0S FORT PULASKI 1500 59 61 60/ 16/ 20 1022.2 SAPELO ISLAND 1500 68 70/ 7 1021.0 $$ ANZ835-935-AMZ111-154-330-350-352-354-370-450-454-472-041600- ...C-MAN AND BUOY OBSERVATIONS... STATION/POSITION TIME TEMP WIND PRES WAVE SWELL AIR SEA DIR/SP/G HT/PER HT/PER/DIR (UTC) (F) (DEG/KT/KT) (MB) (FT/S) (FT/S/D) BUOY 41004 1450 64 74 60/ 12/ 16 1022.3R 2/ 9 2/ 90/ 9 BUOY 41008 1450 67 65 100/ 8/ 10 1020.7R 4/ 5 3/ 70/ 5 FOLLY BEACH CMAN 1500 55 50/ 18/ 21 1023.4R CAPERS NEARSHORE 1508 57 62 60/ 19/ 25 1022.6R FRIPP NEARSHORE 1508 59 62 60/ 17/ 23 1022.4R STATION/POSITION TIME TEMP WIND PRES WAVE SWELL AIR SEA DIR/SP/G HT/PER HT/PER/DIR (UTC) (F) (DEG/KT/KT) (MB) (FT/S) (FT/S/D) 5E ST. MARYS GA 1500 65 N/A 4/ 5 FRYING PAN BUOY 1510 60 74 30/ 14/ 19 1023.9 BUOY 41025 1450 55 76 360/ 12/ 16 1025.3R 5/ 9 5/ 50/ 9 CAPE LOOKOUT NC 1500 50 10/ 10/ 14 1025.2F BUOY 41002 1450 65 73 50/ 8/ 10 1022.8R 5/10 5/ 40/10 BUOY 41010 NOT AVBL ST AUGUSTINE FL 1500 70 67 140/ 12/ 14 1020.4R $$

USA.gov is the U.S. government's official web portal to all federal, state and local government web resources and services.